sat.trackr.live / text

‹ back to catalog

STARLINK-35589

NORAD 66426 · 2025-259E

PAYLOAD ACTIVE UNKNOWN

§ Identity

Operator
Country
US
Launch date
2025-11-11
Launch site
AFETR
Launch vehicle
Mass (kg)
RCS (m²)

Purposes: comms

External: N2YO · Heavens-Above · Gunter

§ Orbital elements

Epoch: 2026-09-20T00:49:55.685856Z

Period
94.27 min
Inclination
42.9998°
Eccentricity
0.0000930
Mean motion
15.27583699 rev/d
Perigee alt
482.4 km
Apogee alt
483.7 km
Semi-major
6,861.2 km
B*
3.2684e-4
RAAN
256.8070°
Arg perigee
263.5567°
Mean anomaly
96.5179°
Rev number
4,921

§ Raw data

STARLINK-355891 66426U 25259E   26263.03467229  .00008744  00000+0  32684-3 0  99972 66426  42.9998 256.8070 0000930 263.5567  96.5179 15.27583699 49219

JSON: /api/v1/satellites/66426 · /tle

For live sub-satellite position, see the globe view (requires WebGL).

§ Visibility from observer

Set your observer location to see the next 7 days of passes ≥ 10°. The values pass through the URL so the page stays shareable.

No JS? Fill the form by hand. The geolocation button needs JavaScript.